[[{"header":{"parameterUnit":"m.s-1","parameterCategory":1,"la1":30.2991,"la2":30.254,"lo1":-89.0895,"lo2":-89.0444,"dy":0.0017,"dx":0.0017,"nx":28,"ny":28,"refTime":"2025-07-07T03:00:00:Z","depth":0,"parameterNumber":2,"parameterNumberName":"U-component_of_WINDS"},"data":[0,0,0,0,0,0,0,0,0,0,0,0,0,0,0,0,0,0,0,0,0,0,0,0,0,0,0,0,0,0,0,0,0,0,0,0,0,0,0,0,0,0,0,0,0,0,0,0,0,0,0,0,0,0,0,0,0,0,3.0116,3.0117,0,3.023,3.0231,3.0232,3.0229,3.0228,3.0226,3.0224,3.0345,3.035,3.0355,0,0,0,0,0,0,0,0,0,0,0,0,0,2.9899,2.9903,3.0115,3.0117,3.0118,3.023,3.0231,3.0233,3.0229,3.0228,3.0226,3.0224,3.0344,3.0349,3.0355,0,0,0,0,0,0,0,0,0,0,0,0,0,3.0001,2.9904,3.0115,3.013,3.0132,3.0229,3.0231,3.0233,3.023,3.0227,3.0225,3.0223,3.0342,3.0349,3.0356,3.0447,0,0,3.0377,3.038,0,0,0,0,0,0,0,0,2.9995,3.0009,3.0126,3.0129,3.0132,3.0213,3.0199,3.0305,3.023,3.0193,3.0224,3.0222,3.0303,3.0314,3.034,3.0452,3.0458,3.0378,3.0382,3.0385,3.0387,0,0,0,0,0,0,0,2.9988,3.0004,3.0161,3.0128,3.0132,3.0132,3.0144,3.0219,3.026,3.0196,3.0196,3.0209,3.0305,3.0334,3.0343,3.0459,3.0378,3.0384,3.0388,3.0391,3.0655,3.0657,0,0,0,0,0,0,2.9978,2.9998,3.0157,3.0164,3.0056,3.0138,3.0152,3.0189,3.0259,3.0268,3.0211,3.0209,3.0323,3.0335,3.0347,3.046,3.0385,3.0392,3.0396,3.0652,3.0655,3.0658,0,0,0,0,0,0,2.9973,2.9992,3.0153,3.0081,3.0102,3.0144,3.0187,3.0193,3.0222,3.0271,3.0279,3.0233,3.0321,3.0337,3.0422,3.0464,3.0395,3.0401,3.0648,3.0653,3.0657,3.0685,0,0,0,0,0,0,2.9967,2.999,3.0024,3.0082,3.0106,3.0224,3.0189,3.0197,3.0233,3.0231,3.0293,3.0301,3.0321,3.0412,3.0429,3.0473,3.0407,3.0645,3.065,3.0655,3.0681,3.069,3.0697,0,0,0,0,0,2.9959,3.0028,3.0025,3.0045,3.0149,3.0227,3.024,3.026,3.0237,3.0272,3.0304,3.0299,3.0456,3.0421,3.044,3.0486,3.0642,3.0649,3.0655,3.0677,3.0688,3.0697,0,0,0,0,0,0,2.9974,3.0035,3.0034,3.0123,3.017,3.0226,3.0271,3.0271,3.0326,3.0321,3.0345,3.0359,3.0444,3.0474,3.0432,3.0579,3.0547,3.0557,3.0557,3.0568,3.0576,3.0568,3.0413,0,0,0,0,0,2.9987,3.0044,3.0095,3.0169,3.0193,3.0228,3.0263,3.0274,3.0323,3.0343,3.0381,3.0431,3.0492,3.0531,3.059,3.0685,3.0699,3.0726,3.0735,3.0741,3.075,3.0805,3.0818,3.0679,3.0679,3.0678,0,0,3.0016,3.0057,3.0092,3.0174,3.0211,3.0271,3.0244,3.0309,3.0354,3.0353,3.0436,3.0466,3.0523,3.0614,3.0656,3.0641,3.0792,3.0749,3.0754,3.076,3.0813,3.0826,3.0838,3.0683,3.0682,3.0681,0,0,3.01,3.0135,3.0202,3.024,3.0297,3.032,3.0336,3.0392,3.0412,3.0495,3.0496,3.0551,3.0655,3.0696,3.073,3.0831,3.083,3.085,3.0894,3.0947,3.0958,3.0968,3.1006,3.1019,3.0858,3.0859,3.0859,0,3.0129,3.0218,3.0236,3.0301,3.0338,3.034,3.0408,3.0445,3.0518,3.0544,3.0526,3.0657,3.0696,3.0797,3.0822,3.0849,3.087,3.0843,3.0955,3.0965,3.0975,3.1011,3.1025,3.0861,3.086,3.086,3.086,0,3.0252,3.0314,3.0361,3.0431,3.0474,3.054,3.057,3.0611,3.0619,3.0644,3.073,3.0776,3.0845,3.087,3.0878,3.0973,3.0962,3.0949,3.0918,3.099,3.1024,3.1038,3.0864,3.0863,3.0862,3.0862,0,0,3.0348,3.0428,3.0445,3.0478,3.0541,3.059,3.0658,3.0724,3.0759,3.081,3.0869,3.0957,3.0946,3.0985,3.0998,3.1045,3.1124,3.1026,3.1028,3.1044,3.1234,3.1244,3.126,3.1123,3.1126,3.1128,3.123,0,3.044,3.0558,3.0577,3.0682,3.074,3.0743,3.0802,3.0849,3.0875,3.093,3.0959,3.1022,3.1001,3.1025,3.1071,3.1104,3.1163,3.1097,3.118,3.1182,3.1166,3.1277,3.1288,3.1382,3.1243,3.1245,3.1247,0,3.0562,3.0615,3.0726,3.0782,3.0808,3.086,3.0924,3.0975,3.1029,3.1045,3.1089,3.1097,3.1169,3.1134,3.1235,3.119,3.1225,3.1247,3.1251,3.126,3.122,3.1291,3.1412,3.1427,3.1268,3.1266,3.1265,0,3.0623,3.0723,3.0802,3.083,3.0897,3.0935,3.0965,3.1016,3.1055,3.1111,3.1137,3.12,3.1236,3.1286,3.1312,3.1283,3.1412,3.1378,3.1429,3.1428,3.1457,3.1455,3.1586,3.1477,3.1477,3.1477,3.1476,0,3.0724,3.0792,3.0831,3.088,3.0957,3.0978,3.1054,3.1084,3.1129,3.1186,3.1192,3.1245,3.1275,3.1334,3.1354,3.1436,3.1452,3.1468,3.1473,3.1468,3.1466,3.1492,3.1487,3.148,3.1479,3.1479,3.1478,0,3.0805,3.0834,3.0921,3.0978,3.0994,3.1048,3.1098,3.1147,3.1172,3.1244,3.1262,3.1303,3.1372,3.1403,3.1488,3.1502,3.1596,3.1595,3.1577,3.1579,3.1629,3.1625,3.1783,3.1806,3.168,3.1681,3.1682,0,3.0868,3.0921,3.0983,3.1021,3.1052,3.1112,3.1152,3.1176,3.1218,3.1284,3.1325,3.1394,3.145,3.156,3.1599,3.1664,3.1667,3.1718,3.1677,3.1671,3.167,3.1667,3.1673,3.1726,3.1727,3.1728,3.1729,0,3.0978,3.099,3.1046,3.1109,3.1156,3.1206,3.1256,3.1287,3.1319,3.1366,3.1436,3.1479,3.1566,3.1635,3.1703,3.1736,3.1739,3.1741,3.1757,3.1753,3.1741,3.175,3.1599,3.1738,3.1737,3.1736,3.1735,3.1735,3.1053,3.1101,3.1152,3.1216,3.1255,3.1302,3.1351,3.1383,3.1441,3.1513,3.1524,3.1599,3.1653,3.1745,3.178,3.1841,3.1829,3.1851,3.1857,3.1862,3.1866,3.173,3.1853,3.1853,3.1853,3.1853,3.1852,0,3.1165,3.1198,3.1256,3.1325,3.1375,3.1372,3.1427,3.147,3.1535,3.1585,3.164,3.1721,3.1788,3.1833,3.1901,3.1941,3.1944,3.1958,3.1956,3.1965,3.1872,3.1852,3.1955,3.1955,3.1955,3.1955,3.1955,3.1955,3.1228,3.1309,3.1327,3.1428,3.1461,3.1534,3.1566,3.1609,3.1649,3.1739,3.1795,3.1822,3.1871,3.1943,3.2005,3.2016,3.2042,3.2057,3.2068,3.1981,3.1971,3.1961,3.1942,3.2062,3.2062,3.2156,3.2157,3.2158]},{"header":{"parameterUnit":"m.s-1","parameterCategory":1,"la1":30.2991,"la2":30.254,"lo1":-89.0895,"lo2":-89.0444,"dy":0.0017,"dx":0.0017,"nx":28,"ny":28,"refTime":"2025-07-07T03:00:00:Z","depth":0,"parameterNumber":3,"parameterNumberName":"V-component_of_WINDS"},"data":[0,0,0,0,0,0,0,0,0,0,0,0,0,0,0,0,0,0,0,0,0,0,0,0,0,0,0,0,0,0,0,0,0,0,0,0,0,0,0,0,0,0,0,0,0,0,0,0,0,0,0,0,0,0,0,0,0,0,-0.0446,-0.0447,0,-0.0505,-0.0506,-0.0507,-0.0544,-0.0544,-0.0544,-0.0544,-0.0605,-0.0606,-0.0608,0,0,0,0,0,0,0,0,0,0,0,0,0,-0.0367,-0.0368,-0.0446,-0.0447,-0.0448,-0.0505,-0.0506,-0.0507,-0.0544,-0.0544,-0.0544,-0.0544,-0.0605,-0.0606,-0.0608,0,0,0,0,0,0,0,0,0,0,0,0,0,-0.0411,-0.0368,-0.0446,-0.0473,-0.0476,-0.0505,-0.0506,-0.0507,-0.0544,-0.0544,-0.0544,-0.0545,-0.0604,-0.0606,-0.0608,-0.0615,0,0,-0.0615,-0.0616,0,0,0,0,0,0,0,0,-0.0408,-0.0414,-0.0468,-0.0471,-0.0475,-0.0517,-0.05,-0.0543,-0.0544,-0.0518,-0.0544,-0.0545,-0.0576,-0.058,-0.0591,-0.0618,-0.062,-0.0615,-0.0616,-0.0617,-0.0618,0,0,0,0,0,0,0,-0.0405,-0.0412,-0.0469,-0.0469,-0.0473,-0.0483,-0.0489,-0.0509,-0.0544,-0.052,-0.0523,-0.0529,-0.0577,-0.0588,-0.0592,-0.0621,-0.0615,-0.0617,-0.0618,-0.0619,-0.066,-0.066,0,0,0,0,0,0,-0.0398,-0.0409,-0.0468,-0.0471,-0.0442,-0.0484,-0.0491,-0.0503,-0.0544,-0.0551,-0.0529,-0.0531,-0.0585,-0.059,-0.0594,-0.0607,-0.0617,-0.0619,-0.062,-0.066,-0.066,-0.066,0,0,0,0,0,0,-0.0396,-0.0403,-0.0465,-0.0441,-0.045,-0.0485,-0.0498,-0.0504,-0.0515,-0.0551,-0.0558,-0.0534,-0.0585,-0.0591,-0.061,-0.0609,-0.062,-0.0622,-0.066,-0.066,-0.066,-0.063,0,0,0,0,0,0,-0.0394,-0.0402,-0.0404,-0.0441,-0.0451,-0.0479,-0.0498,-0.0505,-0.0519,-0.0522,-0.0557,-0.0563,-0.0586,-0.0607,-0.0612,-0.0612,-0.0624,-0.066,-0.066,-0.066,-0.0631,-0.0629,-0.0627,0,0,0,0,0,-0.0391,-0.0393,-0.0404,-0.0411,-0.0454,-0.0479,-0.0485,-0.0511,-0.0519,-0.0522,-0.0545,-0.0562,-0.0608,-0.0608,-0.0615,-0.0616,-0.0661,-0.066,-0.066,-0.0632,-0.0629,-0.0627,0,0,0,0,0,0,-0.0355,-0.0398,-0.0411,-0.0425,-0.0448,-0.0485,-0.049,-0.0507,-0.0528,-0.053,-0.0561,-0.0569,-0.0585,-0.0602,-0.0601,-0.0626,-0.0637,-0.0637,-0.0614,-0.0611,-0.0609,-0.0604,-0.0625,0,0,0,0,0,-0.0349,-0.0366,-0.0402,-0.0412,-0.0423,-0.0454,-0.0466,-0.0484,-0.0509,-0.0519,-0.0544,-0.0567,-0.0588,-0.06,-0.0621,-0.0634,-0.0643,-0.0638,-0.0636,-0.0634,-0.0634,-0.0644,-0.0643,-0.0658,-0.0658,-0.0658,0,0,-0.0337,-0.0363,-0.0371,-0.0405,-0.0425,-0.0442,-0.0462,-0.0478,-0.0492,-0.0522,-0.0541,-0.056,-0.0589,-0.0605,-0.0614,-0.062,-0.0632,-0.0633,-0.0631,-0.0633,-0.0644,-0.0642,-0.0641,-0.0658,-0.0658,-0.0658,0,0,-0.0323,-0.0344,-0.0354,-0.0374,-0.0405,-0.0426,-0.0429,-0.0463,-0.0477,-0.0497,-0.0521,-0.0537,-0.0571,-0.0591,-0.0606,-0.0602,-0.0618,-0.0607,-0.0595,-0.0605,-0.0604,-0.0603,-0.0603,-0.0602,-0.0608,-0.0608,-0.0607,0,-0.0304,-0.033,-0.0358,-0.0374,-0.0389,-0.0417,-0.0429,-0.0447,-0.0482,-0.0492,-0.0499,-0.0543,-0.0565,-0.0587,-0.0586,-0.0597,-0.0602,-0.0603,-0.0602,-0.0601,-0.0601,-0.0601,-0.06,-0.0606,-0.0606,-0.0606,-0.0607,0,-0.0306,-0.0323,-0.0328,-0.0363,-0.0378,-0.0392,-0.0422,-0.0435,-0.0452,-0.0473,-0.0494,-0.0521,-0.0548,-0.0555,-0.0572,-0.058,-0.0584,-0.0596,-0.0607,-0.0597,-0.0598,-0.0598,-0.0604,-0.0604,-0.0605,-0.0605,0,0,-0.0271,-0.0321,-0.0322,-0.0339,-0.0375,-0.039,-0.0405,-0.0432,-0.0443,-0.0467,-0.0481,-0.051,-0.0522,-0.0539,-0.0558,-0.0566,-0.0563,-0.0577,-0.0579,-0.0575,-0.0576,-0.0567,-0.0567,-0.0574,-0.0575,-0.0575,-0.0574,0,-0.0263,-0.0292,-0.0318,-0.0338,-0.0356,-0.0384,-0.0398,-0.0422,-0.0442,-0.0461,-0.0483,-0.0504,-0.0517,-0.0528,-0.0537,-0.0561,-0.0564,-0.0562,-0.0589,-0.059,-0.0581,-0.0567,-0.0558,-0.0556,-0.0574,-0.0574,-0.0575,0,-0.0258,-0.0281,-0.0303,-0.0339,-0.0347,-0.0359,-0.0387,-0.0404,-0.0432,-0.0447,-0.0466,-0.0487,-0.0505,-0.0515,-0.0542,-0.054,-0.0553,-0.0567,-0.0568,-0.0572,-0.0582,-0.0571,-0.0556,-0.0555,-0.0575,-0.0575,-0.0575,0,-0.0231,-0.0268,-0.0286,-0.0299,-0.0342,-0.035,-0.0368,-0.0396,-0.0412,-0.0436,-0.0446,-0.0472,-0.0487,-0.0507,-0.0535,-0.0539,-0.0559,-0.0571,-0.0573,-0.0572,-0.0576,-0.0575,-0.0562,-0.0583,-0.0583,-0.0583,-0.0583,0,-0.0221,-0.0233,-0.0275,-0.0286,-0.0302,-0.0332,-0.0347,-0.0367,-0.0393,-0.041,-0.0435,-0.045,-0.0486,-0.0505,-0.0527,-0.0547,-0.0553,-0.0566,-0.0571,-0.0564,-0.0562,-0.0573,-0.0574,-0.0583,-0.0583,-0.0583,-0.0583,0,-0.0194,-0.0222,-0.0244,-0.0283,-0.0293,-0.0303,-0.0336,-0.0349,-0.0371,-0.0392,-0.0398,-0.0433,-0.0458,-0.0487,-0.0521,-0.0536,-0.0554,-0.0562,-0.0544,-0.0548,-0.0548,-0.0548,-0.0542,-0.0544,-0.0562,-0.0562,-0.0562,0,-0.0185,-0.0195,-0.0236,-0.0249,-0.0266,-0.0286,-0.0302,-0.0333,-0.0349,-0.0383,-0.0392,-0.0418,-0.0441,-0.0479,-0.0508,-0.0534,-0.0544,-0.054,-0.0548,-0.054,-0.0545,-0.0544,-0.0546,-0.0538,-0.0538,-0.0537,-0.0537,0,-0.0167,-0.0181,-0.0203,-0.023,-0.0249,-0.0271,-0.0295,-0.0305,-0.0341,-0.0357,-0.0383,-0.04,-0.0436,-0.0462,-0.0492,-0.0512,-0.0531,-0.0534,-0.0536,-0.0529,-0.0518,-0.0525,-0.054,-0.0534,-0.0535,-0.0535,-0.0535,-0.0535,-0.015,-0.0161,-0.0192,-0.0216,-0.0237,-0.0259,-0.0273,-0.0298,-0.032,-0.0351,-0.0368,-0.0393,-0.0423,-0.0466,-0.0485,-0.0506,-0.0513,-0.0515,-0.0516,-0.0516,-0.0515,-0.0515,-0.0512,-0.0512,-0.0512,-0.0512,-0.0512,0,-0.0135,-0.0156,-0.0177,-0.0211,-0.023,-0.0246,-0.0274,-0.0289,-0.0311,-0.0337,-0.036,-0.039,-0.0416,-0.0447,-0.0476,-0.0487,-0.0496,-0.0493,-0.0493,-0.0498,-0.0506,-0.0502,-0.0485,-0.0485,-0.0485,-0.0485,-0.0485,-0.0485,-0.0129,-0.0149,-0.0167,-0.0199,-0.022,-0.0245,-0.026,-0.0281,-0.0302,-0.0335,-0.0357,-0.0377,-0.0406,-0.0437,-0.0462,-0.0471,-0.0481,-0.0475,-0.0487,-0.0494,-0.0497,-0.0499,-0.0495,-0.0477,-0.0477,-0.0476,-0.0476,-0.0476]}]]